This demonstration page uses our WeatherBlox Daily Observations layout. Learn more.

Left ArrowRight Arrow

38.20091, -84.87328

Hourly Observations for October 28, 2021

Temp ( °F °C ) Dew Point ( °F °C ) Humidity (%) Winds ( mph kmh ) Pressure ( in mb ) Visibility ( mi km ) Precip ( " mm )
12:53 am 00:53 Clear 47 8.3 43 6.1 86 86 E 8 13 29.80 1009 10 16 0.00 0.00
1:53 am 01:53 Clear 46 7.8 43 6.1 89 89 E 9 15 29.78 1008 10 16 0.00 0.00
2:53 am 02:53 Clear 46 7.8 43 6.1 89 89 E 7 11 29.75 1008 10 16 0.00 0.00
3:53 am 03:53 Clear 46 7.8 43 6.1 89 89 E 9 15 29.73 1007 10 16 0.00 0.00
4:53 am 04:53 Clear 46 7.8 43 6.1 89 89 E 8 13 29.70 1006 10 16 0.00 0.00
5:53 am 05:53 Clear 46 7.8 43 6.1 89 89 E 7 11 29.68 1005 10 16 0.00 0.00
6:53 am 06:53 Clear 46 7.8 44 6.7 93 93 E 9 15 29.65 1004 10 16 0.00 0.00
7:53 am 07:53 Clear 47 8.3 44 6.7 90 90 E 9 15 29.61 1003 10 16 0.00 0.00
8:53 am 08:53 Sunny 47 8.3 44 6.7 90 90 ENE 14 22 29.59 1002 10 16 0.00 0.00
9:53 am 09:53 Cloudy 49 9.4 45 7.2 86 86 E 8 13 29.58 1002 10 16 0.00 0.00
10:53 am 10:53 Cloudy 51 10.6 46 7.8 83 83 E 9 15 29.55 1001 10 16 0.00 0.00
11:53 am 11:53 Cloudy with Light Rain 52 11.1 48 8.9 86 86 E 9 15 29.52 1000 8 13 0.04 1.02
12:53 pm 12:53 Cloudy 52 11.1 49 9.4 89 89 NW 3 6 29.54 1001 10 16 0.07 1.78
1:53 pm 13:53 Cloudy 52 11.1 50 10 93 93 ENE 6 9 29.53 1000 10 16 0.01 0.25
2:53 pm 14:53 Cloudy 53 11.7 51 10.6 93 93 NE 5 7 29.51 999 10 16 0.00 0.00
3:53 pm 15:53 Cloudy with Rain 54 12.2 52 11.1 93 93 E 3 6 29.52 1000 6 10 0.03 0.76
4:53 pm 16:53 Cloudy 54 12.2 53 11.7 97 97 NE 5 7 29.52 1000 10 16 0.04 1.02
5:53 pm 17:53 Cloudy 55 12.8 53 11.7 93 93 E 5 7 29.52 1000 10 16 0.00 0.00
6:53 pm 18:53 Cloudy 55 12.8 53 11.7 93 93 E 5 7 29.52 1000 10 16 0.00 0.00
7:53 pm 19:53 Cloudy 55 12.8 53 11.7 93 93 ESE 3 6 29.53 1000 10 16 0.01 0.25
8:53 pm 20:53 Partly Cloudy 55 12.8 53 11.7 93 93 ESE 8 13 29.51 999 10 16 0.00 0.00
9:39 pm 21:39 Mostly Cloudy 54 12.2 53 11.7 97 97 ESE 6 9 29.51 999 10 16 0.00 0.00
9:53 pm 21:53 Partly Cloudy 54 12.2 53 11.7 97 97 SE 6 9 29.50 999 10 16 0.00 0.00
10:53 pm 22:53 Cloudy 54 12.2 53 11.7 97 97 ESE 3 6 29.49 999 10 16 0.00 0.00
11:53 pm 23:53 Cloudy 54 12.2 53 11.7 97 97 Calm 29.49 999 10 16 0.00 0.00

Powered by AerisWeather